Regional Weather Roundup
Issued by NWS Cleveland, OH

Home | Current Version | Previous Version | Graphics & Text | Print | Product List | Glossary On
Versions: 1 2 3 4 5 6 7 8 9 10 11 12 13 14 15 16 17 18 19 20 21 22 23 24 25 26 27 28 29 30 31 32 33 34 35 36 37 38 39 40 41 42 43 44 45 46 47 48 49 50
543
ASUS41 KCLE 061212
RWRCLE
OHIO REGIONAL WEATHER ROUNDUP
NATIONAL WEATHER SERVICE WILMINGTON, OH
800 AM EDT FRI MAY 06 2016

NOTE: "FAIR" INDICATES FEW OR NO CLOUDS BELOW 12,000 FEET WITH NO
SIGNIFICANT WEATHER AND/OR OBSTRUCTIONS TO VISIBILITY.

OHZ001>008-015>018-024>027-034-035-043-044-061300-
   NORTHWEST OHIO

CITY           SKY/WX    TMP DP  RH WIND       PRES   REMARKS
DEFIANCE       FAIR      50  42  74 NW3       29.96R
FINDLAY        FAIR      50  40  68 CALM      29.94R
TOLEDO EXPRESS FAIR      50  42  74 CALM      29.95R
TOLEDO EXEC    FAIR      51  40  65 CALM      29.96R
LIMA           FAIR      47  45  93 CALM      29.95R
$$

OHZ009>014-019>023-028>033-038-089-061300-
   NORTHEAST OHIO

CITY           SKY/WX    TMP DP  RH WIND       PRES   REMARKS
CLE-HOPKINS    FAIR      50  43  77 NW6       29.93R
CLE-LAKEFRONT  FAIR      50  44  80 W9        29.90R
CUY CO. ARPT   MOSUNNY   61  57  88 NW6       29.90R
LORAIN-ELYRIA  FAIR      49  42  77 NW9       29.92R
ASHTABULA      FAIR      48  42  80 NW3       29.88R
AKRON-CANTON   FAIR      47  41  80 N8        29.87R
WOOSTER        FAIR      48  41  76 N10       29.89R
MANSFIELD      FAIR      48  41  76 NW9       29.91R
YOUNGSTOWN     FAIR      49  41  74 N8        29.86R
$$

OHZ042-051>053-060>062-070>072-077>081-061300-
  SOUTHWEST OHIO

CITY           SKY/WX    TMP DP  RH WIND       PRES   REMARKS
CINC-COVINGTON FAIR      51  43  74 N7        29.96R
CINC-LUNKEN    PTSUNNY   50  47  89 CALM      29.97R
HAMILTON       FAIR      51  44  77 NW5       29.97R
DAYTON         FAIR      49  43  80 N8        29.96R
WRIGHT-PAT AFB FAIR      49  46  88 NW8       29.94R
DAYTON GENERAL FAIR      50  42  74 N7        29.94R
WILMINGTON     FAIR      49  41  74 N10       29.93R
$$

OHZ036-037-039>041-045>050-054>059-063>069-073>076-082>088-061300-
  CENTRAL AND SOUTHEAST OHIO

CITY           SKY/WX    TMP DP  RH WIND       PRES   REMARKS
COLUMBUS       FAIR      48  39  71 N10       29.91R
OSU AIRPORT    FAIR      50  38  63 N10       29.92R
BOLTON FIELD   SUNNY     48  39  71 N9        29.92R
RICKENBACK AFB FAIR      49  39  69 N7        29.91R
NEWARK         FAIR      51  41  68 CALM      29.89R
MARION         FAIR      49  40  71 N9        29.94R
LANCASTER      FAIR      49  41  74 NW8       29.90R
ZANESVILLE     FAIR      52  43  71 NW7       29.88R
NEW PHILLY     FAIR      47  42  83 NW3       29.88R
$$




USA.gov is the U.S. government's official web portal to all federal, state and local government web resources and services.